Home > Weather > Germering > Past weeks

Flag for Germany Weather for the Past 2 Weeks in Germering, Bavaria, Germany

Now
32 °F

Passing clouds.


Feels Like: 27 °F
Forecast: 33 / 52 °F
Wind: 5 mph from Southeast

Location: Landsberg

Current Time: Feb 5, 2016 at 11:50:19 PM

Latest Report: Feb 5, 2016 at 10:20 PM


Visibility: N/A

Pressure: 30.24 "Hg (28.27 "Hg at 538m altitude)

Humidity: 93%

Dew point: 30 °F

Location of GermeringLocation

Historic Weather in Germering — Graph

°F

Germering Temperature Yesterday

Maximum temperature yesterday: 36 °F (at 1:20 PM)
Minimum temperature yesterday: 32 °F (at 12:20 AM)
Average temperature yesterday: 34 °F

High & Low Weather Summary for the Past Weeks

 TemperatureHumidityPressure
High57 °F (Jan 26, 3:20 PM)100% (Jan 22, 5:20 AM)30.63 "Hg (Jan 22, 5:20 AM)
Low10 °F (Jan 21, 11:20 PM)44% (Jan 25, 2:20 PM)29.89 "Hg (Jan 30, 10:20 PM)
Average40 °F79%30.25 "Hg
* Reported Jan 21 10:20 PM — Feb 5 10:20 PM, Germering, Weather by CustomWeather, © 2016

Note: Actual official high and low records may vary slightly from our data, if they occured in-between our weather recording intervals... More about our weather records

Advertising

Germering Weather History for the Previous 24 Hours

 ConditionsComfort  
Time TempWeatherWind HumidityBarometerVisibility
10:20 PM
Fri, Feb 5
32 °FPassing clouds.5 mph93%30.24 "HgN/A
9:20 PM34 °FPassing clouds.5 mph93%30.24 "HgN/A
8:20 PM36 °FPassing clouds.5 mph93%30.27 "HgN/A
7:20 PM36 °FPassing clouds.6 mph93%30.27 "HgN/A
6:20 PM37 °FPassing clouds.3 mph93%30.30 "HgN/A
5:20 PM43 °FScattered clouds.7 mph81%30.30 "HgN/A
4:20 PM45 °FPartly sunny.9 mph71%30.30 "HgN/A
3:20 PM45 °FPartly sunny.8 mph66%30.30 "HgN/A
2:20 PM43 °FPartly sunny.12 mph76%30.30 "HgN/A
1:20 PM43 °FBroken clouds.14 mph71%30.33 "HgN/A
12:20 PM41 °FPartly sunny.12 mph76%30.36 "HgN/A
12:00 PM41 °FPartly sunny.12 mph76%30.36 "HgN/A
11:20 AM41 °FBroken clouds.13 mph81%30.36 "HgN/A
10:20 AM39 °FPartly sunny.9 mph87%30.36 "HgN/A
9:20 AM37 °FPartly sunny.6 mph93%30.36 "HgN/A
8:20 AM37 °FBroken clouds.7 mph87%30.36 "HgN/A
7:20 AM37 °FPartly cloudy.12 mph87%30.33 "HgN/A
6:20 AM37 °FLight rain. Partly cloudy.13 mph93%30.33 "HgN/A
5:20 AM36 °FPartly cloudy.12 mph100%30.30 "HgN/A
4:20 AM36 °FLight rain. Partly cloudy.10 mph93%30.30 "HgN/A
3:20 AM36 °FLight rain. Partly cloudy.12 mph93%30.27 "HgN/A
2:20 AM36 °FLight rain. Passing clouds.16 mph93%30.27 "HgN/A
12:20 AM36 °FPassing clouds.21 mph93%30.21 "HgN/A
11:20 PM
Thu, Feb 4
36 °FLight rain. Passing clouds.22 mph93%30.21 "HgN/A
Weather by CustomWeather, © 2016

See weather overviewHow to use our weather pages